Regional Weather Roundup
Issued by NWS

Home | Current Version | Previous Version | Graphics & Text | Print | Product List | Glossary On
Versions: 1 2 3 4 5 6 7 8 9 10 11 12 13 14 15 16 17 18 19 20 21 22 23 24 25 26 27 28 29 30 31 32 33 34 35 36 37 38 39 40 41 42 43 44 45 46 47 48 49 50
945
ASUS43 KDTX 222301
RWRMI
MICHIGAN HOURLY REGIONAL WEATHER ROUNDUP
NATIONAL WEATHER SERVICE DETROIT/PONTIAC MI
700 PM EDT MON MAY 22 2017

NOTE: "FAIR" INDICATES FEW OR NO CLOUDS BELOW 12,000 FEET WITH NO
SIGNIFICANT WEATHER AND/OR OBSTRUCTION TO VISIBILITY.

MIZ047>049-052>055-059>063-066>070-074>076-081>083-230000-
SOUTHEAST LOWER MICHIGAN

CITY           SKY/WX    TMP DP  RH WIND       PRES   REMARKS
ADRIAN         SUNNY     68  46  45 W12       29.98F
ALMA           CLOUDY    64  44  49 W14G21    29.93F
ANN ARBOR      MOSUNNY   67  48  50 SW15      29.95F
BAD AXE        MOSUNNY   65  42  41 W13G23    29.91R
CARO           SUNNY     65  44  46 W12G18    29.92R
DETROIT CITY   SUNNY     69  44  40 W15       29.95S
DETROIT        MOSUNNY   69  45  41 W16       29.96S
FLINT          SUNNY     67  45  45 W14       29.93F
GROSSE ILE     MOSUNNY   69  45  42 W7        29.96S
HILLSDALE      MOSUNNY   66  45  45 SW8G16    29.97S
HOWELL         SUNNY     66  42  41 SW7       29.95S

CITY           SKY/WX    TMP DP  RH WIND       PRES   REMARKS
JACKSON        MOSUNNY   67  46  47 SW14G20   29.96F
LAMBERTVILLE   SUNNY     69  46  43 W6        29.97F
LANSING        PTSUNNY   67  43  41 W13       29.95S
LAPEER         FAIR      67  40  37 W16       29.94S
MASON          CLOUDY    67  45  45 W6        29.95S
MONROE         MOSUNNY   70  47  43 W8G16     29.96F
MT. CLEMENS    MOSUNNY   69  44  39 W12G20    29.92S
PONTIAC        MOSUNNY   67  42  40 SW14      29.93F
PORT HOPE        N/A     66  41  40 W10G20    29.88S
PORT HURON     SUNNY     68  37  32 W8        29.94S
TRI CITIES     MOSUNNY   65  45  48 W15       29.92R
MIDLAND        FAIR      65  41  41 SW14G21   29.90S
TROY           SUNNY     71  39  31 W10       29.96S
SAGINAW HB     MOSUNNY   66  37  34 SW15G25   29.92S
$$
MIZ043>046-050>051-056>058-064>065-071>073-077>080-230000-
SOUTHWEST LOWER MICHIGAN

CITY           SKY/WX    TMP DP  RH WIND       PRES   REMARKS
BATTLE CREEK   MOSUNNY   68  47  46 SW9       29.95F
BENTON HARBOR  CLOUDY    71  42  35 S12G20    29.92F
BIG RAPIDS     PTSUNNY   60  44  55 SW12      29.90F
COLDWATER      MOSUNNY   67  45  44 SW8G16    29.96S
FREMONT        LGT RAIN  56  50  80 SW3       29.92S
HOLLAND        PTSUNNY   67  45  45 SW9       29.92F
GRAND RAPIDS   PTSUNNY   66  46  48 W12       29.93F
IONIA          CLOUDY    65  45  47 W10G17    29.93S
KALAMAZOO      MOSUNNY   68  43  40 SW10      29.94F
LUDINGTON      CLOUDY    60  49  66 S13G18    29.87S
MARSHALL       SUNNY     68  46  44 SW9       29.95S
MOUNT PLEASANT MOSUNNY   64  44  47 W13G22    29.92R
MUSKEGON       CLOUDY    63  44  50 S9        29.91F
SOUTH HAVEN    CLOUDY    69  44  40 SW5       29.92F
$$
MIZ016>042-230000-
NORTHERN LOWER MICHIGAN

CITY           SKY/WX    TMP DP  RH WIND       PRES   REMARKS
ALPENA         MOSUNNY   62  41  46 W14G20    29.87S
BEAVER ISLAND  CLOUDY    55  42  63 S12G17    29.83F
BELLAIRE       SUNNY     63  42  45 SW7       29.85F
CADILLAC       PTSUNNY   60  44  55 SW10      29.88S
CHARLEVOIX     PTSUNNY   61  44  53 SW8       29.87F
FRANKFORT      MOSUNNY   60  45  57 S16G29    29.85F
GAYLORD        MOSUNNY   61  40  45 SW15      29.86F
GRAYLING       SUNNY     62  41  46 SW9G18    29.88S
HARBOR SPRINGS MOSUNNY   55  42  61 W6        29.85S
HOUGHTON LAKE  MOSUNNY   62  42  47 W12G21    29.89S
MANISTEE       MOSUNNY   64  47  53 SW12G21   29.85F
OSCODA         SUNNY     67  37  33 W20G29    29.87R
PELLSTON       PTSUNNY   58  41  53 SW12      29.85S
ROGERS CITY    SUNNY     59  42  52 W14       29.87S
TRAVERSE CITY  MOSUNNY   66  43  43 SW13G22   29.83F
$$
MIZ007>008-015-230000-
EASTERN UPPER MICHIGAN

CITY           SKY/WX    TMP DP  RH WIND       PRES   REMARKS
KINROSS        CLOUDY    52  44  74 W10       29.84R
MACKINAC ISLAN SUNNY     53  44  73 SW13G23   29.84S
NEWBERRY       CLOUDY    53  47  78 SW8       29.82S
S. S. MARIE    LGT RAIN  50  48  93 NW5       29.83S FOG
$$
MIZ004>006-011>014-085-230000-
CENTRAL UPPER MICHIGAN

CITY           SKY/WX    TMP DP  RH WIND       PRES   REMARKS
MANISTIQUE     CLOUDY    46  43  90 S5        29.83S
ESCANABA       LGT RAIN  50  48  93 CALM      29.82R
MENOMINEE      LGT RAIN  62  47  57 VRB3      29.80R
SAWYER-GWINN   CLOUDY    54  43  66 W6        29.80R
$$
MIZ001>003-009>011-084-230000-
WESTERN UPPER MICHIGAN

CITY           SKY/WX    TMP DP  RH WIND       PRES   REMARKS
IRON MOUNTAIN  CLOUDY    57  40  52 W12       29.80R
HOUGHTON       CLOUDY    52  41  66 W15       29.79R
COPPER HARBOR    N/A     53  42  66 VRB7      29.78R
IRONWOOD       CLOUDY    52  45  77 SW8       29.82R
$$

ABBREVIATIONS USED IN REMARKS
   TC - TEMPERATURE IN CELSIUS
  WCI - WIND CHILL INDEX
   HX - HEAT INDEX
  VSB - VISIBILITY





USA.gov is the U.S. government's official web portal to all federal, state and local government web resources and services.